Overview Statistics Trail Chart Weather Telemetry Raw packets
 

This is the latest recevied weather packets stored in our database for station/object 4S6DRJ-13. If no packets are shown the sender has not sent any weather packets the latest 10 day(s).

<< 514 515 516 517 518 519 520 >>
Time Temp. Humidity Pressure Rain* Wind** Luminosity Snow
1787662662 27.78° C 82% 1009.7 hPa 0 mm 0.89 m/s, 260° 1 W/m² -
1787662602 27.78° C 82% 1009.7 hPa 0 mm 0.45 m/s, 253° 1 W/m² -
1787662540 27.78° C 82% 1009.9 hPa 0 mm 1.79 m/s, 241° 1 W/m² -
1787662479 27.78° C 83% 1009.8 hPa 0 mm 0.89 m/s, 262° 1 W/m² -
1787662418 27.78° C 83% 1009.6 hPa 0 mm 1.34 m/s, 303° 1 W/m² -
1787662358 27.78° C 83% 1009.7 hPa 0 mm 2.24 m/s, 327° 1 W/m² -
1787662297 27.78° C 83% 1009.6 hPa 0 mm 0.89 m/s, 279° 1 W/m² -
1787662236 27.78° C 83% 1009.5 hPa 0 mm 0.89 m/s, 252° 1 W/m² -
1787662174 27.78° C 83% 1009.7 hPa 0 mm 2.24 m/s, 283° 1 W/m² -
1787662113 27.78° C 83% 1009.6 hPa 0 mm 0.89 m/s, 293° 2 W/m² -
1787662053 27.78° C 83% 1009.7 hPa 0 mm 1.34 m/s, 141° 2 W/m² -
1787661991 27.78° C 83% 1009.5 hPa 0 mm 1.34 m/s, 274° 2 W/m² -
1787661930 27.78° C 83% 1009.4 hPa 0 mm 0.89 m/s, 225° 2 W/m² -
1787661869 27.78° C 83% 1009.6 hPa 0 mm 1.79 m/s, 212° 3 W/m² -
1787661808 27.78° C 83% 1009.6 hPa 0 mm 0.45 m/s, 332° 3 W/m² -
1787661747 27.78° C 83% 1009.5 hPa 0 mm 0.89 m/s, 226° 4 W/m² -
1787661686 27.78° C 83% 1009.7 hPa 0 mm 0.89 m/s, 160° 4 W/m² -
1787661625 27.78° C 83% 1009.4 hPa 0 mm 0.89 m/s, 308° 5 W/m² -
1787661564 27.78° C 83% 1009.6 hPa 0 mm 0.89 m/s, 194° 6 W/m² -
1787661504 27.78° C 83% 1009.5 hPa 0 mm 0.45 m/s, 272° 6 W/m² -
1787661442 27.78° C 83% 1009.5 hPa 0 mm 0.45 m/s, 192° 7 W/m² -
1787661381 27.78° C 83% 1009.6 hPa 0 mm 0.89 m/s, 224° 8 W/m² -
1787661321 27.78° C 83% 1009.4 hPa 0 mm 0.89 m/s, 234° 8 W/m² -
1787661259 27.78° C 83% 1009.5 hPa 0 mm 0.89 m/s, 349° 9 W/m² -
1787661198 27.78° C 82% 1009.4 hPa 0 mm 1.34 m/s, 168° 10 W/m² -

* Rain latest hour (hover to see other rain measurements)
** Current wind speed in m/s (hover to see current wind gust speed)